Time,TemperatureF,DewpointF,PressureIn,WindDirection,WindDirectionDegrees,WindSpeedMPH,WindSpeedGustMPH,Humidity,HourlyPrecipIn,Conditions,Clouds,dailyrainin,SoftwareType,DateUTC
2013-09-11 00:00:00,69.2,66.0,30.08,WSW,242,0.0,0.0,90,0.00,,,0.00,weatherlink.com 1.10,2013-09-11 05:00:00,
2013-09-11 00:15:00,69.2,66.0,30.08,WSW,242,0.0,0.0,90,0.00,,,0.00,weatherlink.com 1.10,2013-09-11 05:15:00,
2013-09-11 00:30:00,69.6,67.0,30.08,WSW,242,0.0,0.0,90,0.00,,,0.00,weatherlink.com 1.10,2013-09-11 05:30:00,
2013-09-11 00:45:00,69.5,67.0,30.08,WSW,242,0.0,0.0,90,0.00,,,0.00,weatherlink.com 1.10,2013-09-11 05:45:00,
2013-09-11 01:00:00,69.1,66.0,30.08,WSW,242,0.0,0.0,90,0.00,,,0.00,weatherlink.com 1.10,2013-09-11 06:00:00,
2013-09-11 01:15:00,68.5,66.0,30.08,WSW,242,0.0,0.0,92,0.00,,,0.00,weatherlink.com 1.10,2013-09-11 06:15:00,
2013-09-11 01:30:00,68.4,66.0,30.08,WSW,242,0.0,0.0,92,0.00,,,0.00,weatherlink.com 1.10,2013-09-11 06:30:00,
2013-09-11 01:45:00,68.3,66.0,30.08,WSW,242,0.0,0.0,92,0.00,,,0.00,weatherlink.com 1.10,2013-09-11 06:45:00,
2013-09-11 02:00:00,68.4,66.0,30.09,WSW,242,0.0,0.0,92,0.00,,,0.00,weatherlink.com 1.10,2013-09-11 07:00:00,
2013-09-11 02:15:00,68.2,66.0,30.08,WSW,242,0.0,0.0,92,0.00,,,0.00,weatherlink.com 1.10,2013-09-11 07:15:00,
2013-09-11 02:30:00,67.8,66.0,30.08,WSW,242,0.0,0.0,93,0.00,,,0.00,weatherlink.com 1.10,2013-09-11 07:30:00,
2013-09-11 02:45:00,67.7,66.0,30.08,WSW,241,0.0,0.0,94,0.00,,,0.00,weatherlink.com 1.10,2013-09-11 07:45:00,
2013-09-11 03:00:00,67.6,66.0,30.08,WSW,242,0.0,0.0,94,0.00,,,0.00,weatherlink.com 1.10,2013-09-11 08:00:00,
2013-09-11 03:16:00,67.4,66.0,30.08,WSW,242,0.0,0.0,95,0.00,,,0.00,weatherlink.com 1.10,2013-09-11 08:16:00,
2013-09-11 03:31:00,67.3,66.0,30.08,WSW,242,0.0,0.0,94,0.00,,,0.00,weatherlink.com 1.10,2013-09-11 08:31:00,
2013-09-11 03:46:00,66.9,65.0,30.08,WSW,242,0.0,0.0,94,0.00,,,0.00,weatherlink.com 1.10,2013-09-11 08:46:00,
2013-09-11 04:01:00,67.1,66.0,30.08,WSW,242,0.0,0.0,95,0.00,,,0.00,weatherlink.com 1.10,2013-09-11 09:01:00,
2013-09-11 04:16:00,66.7,65.0,30.09,WSW,241,0.0,0.0,95,0.00,,,0.00,weatherlink.com 1.10,2013-09-11 09:16:00,
2013-09-11 04:31:00,66.6,66.0,30.08,WSW,242,0.0,0.0,96,0.00,,,0.00,weatherlink.com 1.10,2013-09-11 09:31:00,
2013-09-11 04:46:00,66.6,66.0,30.08,WSW,242,0.0,0.0,96,0.00,,,0.00,weatherlink.com 1.10,2013-09-11 09:46:00,
2013-09-11 05:01:00,66.4,65.0,30.08,WSW,242,0.0,0.0,96,0.00,,,0.00,weatherlink.com 1.10,2013-09-11 10:01:00,
2013-09-11 05:16:00,66.2,65.0,30.08,WSW,241,0.0,0.0,97,0.00,,,0.00,weatherlink.com 1.10,2013-09-11 10:16:00,
2013-09-11 05:31:00,66.2,65.0,30.08,WSW,242,0.0,0.0,97,0.00,,,0.00,weatherlink.com 1.10,2013-09-11 10:31:00,
2013-09-11 05:46:00,66.2,65.0,30.09,WSW,242,0.0,0.0,97,0.00,,,0.00,weatherlink.com 1.10,2013-09-11 10:46:00,
2013-09-11 06:01:00,66.0,65.0,30.09,WSW,242,0.0,0.0,97,0.00,,,0.00,weatherlink.com 1.10,2013-09-11 11:01:00,
2013-09-11 06:16:00,66.0,65.0,30.09,WSW,242,0.0,0.0,97,0.00,,,0.00,weatherlink.com 1.10,2013-09-11 11:16:00,
2013-09-11 06:31:00,66.0,65.0,30.10,WSW,242,0.0,0.0,97,0.00,,,0.00,weatherlink.com 1.10,2013-09-11 11:31:00,
2013-09-11 06:46:00,66.1,65.0,30.10,WSW,242,0.0,0.0,96,0.00,,,0.00,weatherlink.com 1.10,2013-09-11 11:46:00,
2013-09-11 07:01:00,66.0,65.0,30.10,WSW,242,0.0,0.0,97,0.00,,,0.00,weatherlink.com 1.10,2013-09-11 12:01:00,
2013-09-11 07:16:00,65.9,65.0,30.10,WSW,242,0.0,0.0,97,0.00,,,0.00,weatherlink.com 1.10,2013-09-11 12:16:00,
2013-09-11 07:31:00,66.1,65.0,30.11,WSW,242,0.0,0.0,97,0.00,,,0.00,weatherlink.com 1.10,2013-09-11 12:31:00,
2013-09-11 07:46:00,66.5,66.0,30.11,West,261,0.0,1.0,97,0.00,,,0.00,weatherlink.com 1.10,2013-09-11 12:46:00,
2013-09-11 08:01:00,67.4,66.0,30.11,West,262,0.0,0.0,96,0.00,,,0.00,weatherlink.com 1.10,2013-09-11 13:01:00,
2013-09-11 08:16:00,68.6,68.0,30.11,West,259,0.0,0.0,96,0.00,,,0.00,weatherlink.com 1.10,2013-09-11 13:16:00,
2013-09-11 08:31:00,70.2,69.0,30.11,West,261,0.0,0.0,96,0.00,,,0.00,weatherlink.com 1.10,2013-09-11 13:31:00,
2013-09-11 08:46:00,72.7,70.0,30.12,West,260,0.0,1.0,90,0.00,,,0.00,weatherlink.com 1.10,2013-09-11 13:46:00,
2013-09-11 09:01:00,75.0,70.0,30.11,SSW,208,0.0,1.0,85,0.00,,,0.00,weatherlink.com 1.10,2013-09-11 14:01:00,
2013-09-11 09:16:00,77.1,71.0,30.12,SSW,210,0.0,0.0,80,0.00,,,0.00,weatherlink.com 1.10,2013-09-11 14:16:00,
2013-09-11 09:31:00,79.6,71.0,30.12,SW,224,0.0,1.0,75,0.00,,,0.00,weatherlink.com 1.10,2013-09-11 14:31:00,
2013-09-11 09:46:00,81.4,71.0,30.12,WSW,239,0.0,1.0,71,0.00,,,0.00,weatherlink.com 1.10,2013-09-11 14:46:00,
2013-09-11 10:16:00,83.3,70.0,30.12,West,274,2.0,4.0,64,0.00,,,0.00,weatherlink.com 1.10,2013-09-11 15:16:00,
2013-09-11 10:31:00,83.9,69.0,30.12,SW,233,1.0,5.0,62,0.00,,,0.00,weatherlink.com 1.10,2013-09-11 15:31:00,
2013-09-11 10:47:00,84.9,70.0,30.13,SW,225,1.0,4.0,61,0.00,,,0.00,weatherlink.com 1.10,2013-09-11 15:47:00,
2013-09-11 11:02:00,85.5,68.0,30.13,WSW,243,0.0,4.0,56,0.00,,,0.00,weatherlink.com 1.10,2013-09-11 16:02:00,
2013-09-11 11:17:00,86.2,69.0,30.12,SW,231,2.0,3.0,56,0.00,,,0.00,weatherlink.com 1.10,2013-09-11 16:17:00,
2013-09-11 11:32:00,87.4,71.0,30.12,SSW,212,1.0,4.0,58,0.00,,,0.00,weatherlink.com 1.10,2013-09-11 16:32:00,
2013-09-11 11:47:00,87.3,71.0,30.12,West,263,2.0,3.0,59,0.00,,,0.00,weatherlink.com 1.10,2013-09-11 16:47:00,
2013-09-11 12:02:00,87.8,69.0,30.12,West,271,1.0,3.0,53,0.00,,,0.00,weatherlink.com 1.10,2013-09-11 17:02:00,
2013-09-11 12:17:00,88.1,68.0,30.11,WNW,283,0.0,3.0,52,0.00,,,0.00,weatherlink.com 1.10,2013-09-11 17:17:00,
2013-09-11 12:32:00,88.4,70.0,30.11,NW,319,1.0,4.0,54,0.00,,,0.00,weatherlink.com 1.10,2013-09-11 17:32:00,
2013-09-11 12:46:00,88.7,67.0,30.11,SW,236,1.0,4.0,48,0.00,,,0.00,weatherlink.com 1.10,2013-09-11 17:46:00,
2013-09-11 13:01:00,89.3,67.0,30.11,SW,236,2.0,5.0,48,0.00,,,0.00,weatherlink.com 1.10,2013-09-11 18:01:00,
2013-09-11 13:17:00,89.4,66.0,30.10,SSW,207,1.0,5.0,46,0.00,,,0.00,weatherlink.com 1.10,2013-09-11 18:17:00,
2013-09-11 13:32:00,89.5,67.0,30.09,North,359,1.0,5.0,47,0.00,,,0.00,weatherlink.com 1.10,2013-09-11 18:32:00,
2013-09-11 13:47:00,90.9,68.0,30.09,SW,218,2.0,2.0,47,0.00,,,0.00,weatherlink.com 1.10,2013-09-11 18:47:00,
2013-09-11 14:02:00,89.9,67.0,30.09,WNW,296,1.0,3.0,47,0.00,,,0.00,weatherlink.com 1.10,2013-09-11 19:02:00,
2013-09-11 14:18:00,89.1,66.0,30.08,WSW,249,0.0,4.0,47,0.00,,,0.00,weatherlink.com 1.10,2013-09-11 19:18:00,
2013-09-11 14:32:00,89.2,68.0,30.07,SW,225,2.0,3.0,49,0.00,,,0.00,weatherlink.com 1.10,2013-09-11 19:32:00,
2013-09-11 14:47:00,89.9,67.0,30.07,SW,222,0.0,2.0,47,0.00,,,0.00,weatherlink.com 1.10,2013-09-11 19:47:00,
2013-09-11 15:02:00,90.5,67.0,30.06,WSW,250,3.0,3.0,46,0.00,,,0.00,weatherlink.com 1.10,2013-09-11 20:02:00,
2013-09-11 15:17:00,90.1,67.0,30.05,WSW,252,0.0,2.0,47,0.00,,,0.00,weatherlink.com 1.10,2013-09-11 20:17:00,
2013-09-11 15:32:00,90.9,67.0,30.05,NW,316,1.0,4.0,46,0.00,,,0.00,weatherlink.com 1.10,2013-09-11 20:32:00,
2013-09-11 15:47:00,90.6,66.0,30.04,NW,322,2.0,3.0,45,0.00,,,0.00,weatherlink.com 1.10,2013-09-11 20:47:00,
2013-09-11 16:02:00,91.9,68.0,30.04,SSW,209,2.0,4.0,46,0.00,,,0.00,weatherlink.com 1.10,2013-09-11 21:02:00,
2013-09-11 16:17:00,92.0,67.0,30.04,SSW,211,0.0,3.0,44,0.00,,,0.00,weatherlink.com 1.10,2013-09-11 21:17:00,
2013-09-11 16:32:00,92.4,67.0,30.03,NW,313,0.0,2.0,44,0.00,,,0.00,weatherlink.com 1.10,2013-09-11 21:32:00,
2013-09-11 16:47:00,92.0,69.0,30.03,NNW,347,1.0,1.0,47,0.00,,,0.00,weatherlink.com 1.10,2013-09-11 21:47:00,
2013-09-11 17:02:00,92.4,69.0,30.02,North,11,3.0,4.0,47,0.00,,,0.00,weatherlink.com 1.10,2013-09-11 22:02:00,
2013-09-11 17:18:00,92.9,69.0,30.02,SE,139,0.0,0.0,46,0.00,,,0.00,weatherlink.com 1.10,2013-09-11 22:18:00,
2013-09-11 17:34:00,92.9,69.0,30.02,SE,129,0.0,3.0,45,0.00,,,0.00,weatherlink.com 1.10,2013-09-11 22:34:00,
2013-09-11 17:48:00,92.8,69.0,30.02,East,88,0.0,1.0,45,0.00,,,0.00,weatherlink.com 1.10,2013-09-11 22:48:00,
2013-09-11 18:03:00,93.6,68.0,30.02,SSW,201,0.0,0.0,43,0.00,,,0.00,weatherlink.com 1.10,2013-09-11 23:03:00,
2013-09-11 18:17:00,93.7,71.0,30.02,SSW,201,0.0,0.0,47,0.00,,,0.00,weatherlink.com 1.10,2013-09-11 23:17:00,
2013-09-11 18:32:00,92.5,70.0,30.01,SSW,202,0.0,0.0,48,0.00,,,0.00,weatherlink.com 1.10,2013-09-11 23:32:00,
2013-09-11 18:47:00,91.7,71.0,30.01,SSW,201,0.0,0.0,50,0.00,,,0.00,weatherlink.com 1.10,2013-09-11 23:47:00,
2013-09-11 19:02:00,88.7,70.0,30.01,SSW,201,0.0,0.0,54,0.00,,,0.00,weatherlink.com 1.10,2013-09-12 00:02:00,
2013-09-11 19:17:00,85.4,69.0,30.01,SSW,201,0.0,0.0,59,0.00,,,0.00,weatherlink.com 1.10,2013-09-12 00:17:00,
2013-09-11 19:32:00,82.8,69.0,30.02,SSW,201,0.0,0.0,63,0.00,,,0.00,weatherlink.com 1.10,2013-09-12 00:32:00,
2013-09-11 19:47:00,81.5,69.0,30.02,SSE,163,0.0,0.0,65,0.00,,,0.00,weatherlink.com 1.10,2013-09-12 00:47:00,
2013-09-11 20:02:00,80.0,69.0,30.03,SSE,164,0.0,0.0,68,0.00,,,0.00,weatherlink.com 1.10,2013-09-12 01:02:00,
2013-09-11 20:18:00,79.1,69.0,30.04,SSE,164,0.0,0.0,70,0.00,,,0.00,weatherlink.com 1.10,2013-09-12 01:18:00,
2013-09-11 20:33:00,78.5,69.0,30.05,East,83,0.0,1.0,72,0.00,,,0.00,weatherlink.com 1.10,2013-09-12 01:33:00,
2013-09-11 20:48:00,79.8,70.0,30.05,SE,136,0.0,2.0,71,0.00,,,0.00,weatherlink.com 1.10,2013-09-12 01:48:00,
2013-09-11 21:03:00,79.4,70.0,30.05,SE,129,0.0,1.0,72,0.00,,,0.00,weatherlink.com 1.10,2013-09-12 02:03:00,
2013-09-11 21:18:00,78.6,70.0,30.06,SW,214,0.0,1.0,74,0.00,,,0.00,weatherlink.com 1.10,2013-09-12 02:18:00,
2013-09-11 21:33:00,77.6,70.0,30.06,SW,214,0.0,0.0,76,0.00,,,0.00,weatherlink.com 1.10,2013-09-12 02:33:00,
2013-09-11 21:48:00,76.4,69.0,30.06,SW,214,0.0,0.0,78,0.00,,,0.00,weatherlink.com 1.10,2013-09-12 02:48:00,
2013-09-11 22:03:00,76.5,70.0,30.06,SSW,213,0.0,1.0,79,0.00,,,0.00,weatherlink.com 1.10,2013-09-12 03:03:00,
2013-09-11 22:17:00,75.8,69.0,30.07,SW,214,0.0,0.0,80,0.00,,,0.00,weatherlink.com 1.10,2013-09-12 03:17:00,
2013-09-11 22:32:00,75.1,69.0,30.07,SSW,202,0.0,0.0,82,0.00,,,0.00,weatherlink.com 1.10,2013-09-12 03:32:00,
2013-09-11 22:47:00,75.8,69.0,30.07,SE,129,0.0,1.0,78,0.00,,,0.00,weatherlink.com 1.10,2013-09-12 03:47:00,
2013-09-11 23:02:00,76.8,68.0,30.07,SE,134,1.0,3.0,75,0.00,,,0.00,weatherlink.com 1.10,2013-09-12 04:02:00,
2013-09-11 23:17:00,76.7,68.0,30.06,SE,141,0.0,2.0,75,0.00,,,0.00,weatherlink.com 1.10,2013-09-12 04:17:00,
2013-09-11 23:32:00,76.0,68.0,30.06,South,188,0.0,1.0,75,0.00,,,0.00,weatherlink.com 1.10,2013-09-12 04:32:00,
2013-09-11 23:47:00,76.1,67.0,30.05,SE,124,0.0,4.0,73,0.00,,,0.00,weatherlink.com 1.10,2013-09-12 04:47:00,